MEA418 OMDB-OERK

Flight info

Callsign MEA418
Flight time N/A
Altitude 34000
Route SENPA N571 ALPOB L768 ULADA T136 OTISU N112 GETOT Q212 MEMGO
Aircraft A20N/M-SDE2E3FGHIRWXY/LB1

Departure

Time 2026-04-25 08:45
Airport Dubai International Airport (OMDB)

Arrival

Time N/A
Airport King Khalid International Airport (OERK)
Time Latitude Longitude Altitude Speed Heading
2026-04-25 08:15 25.25982 55.34294 26 ft 0 kts 209°
2026-04-25 08:30 25.25984 55.34295 26 ft 1 kts 209°
2026-04-25 08:30 25.25991 55.34299 26 ft 1 kts 209°
2026-04-25 08:30 25.25999 55.34304 26 ft 1 kts 209°
2026-04-25 08:30 25.26006 55.34308 26 ft 1 kts 209°
2026-04-25 08:31 25.26018 55.34316 26 ft 2 kts 209°
2026-04-25 08:31 25.26032 55.34324 26 ft 2 kts 209°
2026-04-25 08:31 25.26044 55.34332 26 ft 2 kts 208°
2026-04-25 08:31 25.26058 55.34339 26 ft 2 kts 185°
2026-04-25 08:32 25.26072 55.34335 26 ft 0 kts 121°
2026-04-25 08:34 25.26068 55.34342 26 ft 4 kts 121°
2026-04-25 08:34 25.26044 55.34388 30 ft 9 kts 120°
2026-04-25 08:34 25.26018 55.34437 29 ft 7 kts 121°
2026-04-25 08:34 25.25985 55.34502 27 ft 12 kts 107°
2026-04-25 08:35 25.26031 55.34584 30 ft 11 kts 40°
2026-04-25 08:35 25.26087 55.34645 27 ft 14 kts 49°
2026-04-25 08:35 25.26136 55.34703 27 ft 9 kts 46°
2026-04-25 08:35 25.26177 55.34748 27 ft 2 kts 39°
2026-04-25 08:36 25.26181 55.34751 27 ft 0 kts 38°
2026-04-25 08:36 25.26195 55.34763 27 ft 6 kts 36°
2026-04-25 08:36 25.26247 55.34799 27 ft 12 kts 31°
2026-04-25 08:37 25.26324 55.34856 28 ft 12 kts 50°
2026-04-25 08:37 25.26313 55.34943 29 ft 11 kts 120°
2026-04-25 08:37 25.26273 55.35015 26 ft 13 kts 122°
2026-04-25 08:37 25.26218 55.35114 24 ft 16 kts 121°
2026-04-25 08:38 25.26169 55.35204 24 ft 12 kts 122°
2026-04-25 08:38 25.26121 55.35289 24 ft 16 kts 122°
2026-04-25 08:38 25.26054 55.35411 18 ft 21 kts 121°
2026-04-25 08:38 25.25979 55.35548 19 ft 22 kts 121°
2026-04-25 08:39 25.25894 55.35706 16 ft 24 kts 121°
2026-04-25 08:39 25.25812 55.35848 18 ft 21 kts 122°
2026-04-25 08:39 25.25742 55.35973 17 ft 19 kts 121°
2026-04-25 08:39 25.25678 55.36088 22 ft 18 kts 122°
2026-04-25 08:40 25.25611 55.36213 25 ft 18 kts 121°
2026-04-25 08:40 25.25546 55.36330 23 ft 18 kts 122°
2026-04-25 08:40 25.25480 55.36447 22 ft 19 kts 121°
2026-04-25 08:40 25.25412 55.36569 21 ft 20 kts 122°
2026-04-25 08:41 25.25337 55.36705 22 ft 20 kts 122°
2026-04-25 08:41 25.25260 55.36841 26 ft 22 kts 121°
2026-04-25 08:41 25.25182 55.36984 28 ft 21 kts 121°
2026-04-25 08:41 25.25108 55.37116 33 ft 20 kts 121°
2026-04-25 08:42 25.25036 55.37249 35 ft 21 kts 121°
2026-04-25 08:42 25.24964 55.37381 35 ft 20 kts 121°
2026-04-25 08:42 25.24887 55.37522 36 ft 22 kts 122°
2026-04-25 08:42 25.24798 55.37679 38 ft 25 kts 122°
2026-04-25 08:43 25.24717 55.37822 36 ft 20 kts 122°
2026-04-25 08:43 25.24669 55.37915 40 ft 9 kts 114°
2026-04-25 08:43 25.24696 55.37975 40 ft 11 kts 33°
2026-04-25 08:43 25.24770 55.38010 40 ft 12 kts
2026-04-25 08:44 25.24844 55.37958 40 ft 15 kts 299°
2026-04-25 08:44 25.24906 55.37841 40 ft 23 kts 302°
2026-04-25 08:44 25.25141 55.37416 39 ft 109 kts 301°
2026-04-25 08:44 25.25664 55.36467 56 ft 174 kts 301°
2026-04-25 08:45 25.26303 55.35276 638 ft 182 kts 300°
2026-04-25 08:45 25.26955 55.34041 1539 ft 189 kts 301°
2026-04-25 08:45 25.27608 55.32780 2633 ft 191 kts 300°
2026-04-25 08:45 25.28297 55.31459 3471 ft 209 kts 300°
2026-04-25 08:46 25.28992 55.30018 3905 ft 215 kts 294°
2026-04-25 08:46 25.29360 55.28424 4033 ft 214 kts 278°
2026-04-25 08:46 25.29451 55.26808 4121 ft 214 kts 274°
2026-04-25 08:46 25.29504 55.25143 4316 ft 224 kts 274°
2026-04-25 08:47 25.29603 55.23327 4875 ft 249 kts 275°
2026-04-25 08:47 25.29731 55.21350 5747 ft 265 kts 275°
2026-04-25 08:47 25.29843 55.19282 6763 ft 276 kts 273°
2026-04-25 08:47 25.29943 55.17129 7829 ft 283 kts 272°
2026-04-25 08:48 25.30038 55.14936 8947 ft 290 kts 272°
2026-04-25 08:48 25.30150 55.12690 10044 ft 296 kts 272°
2026-04-25 08:48 25.30278 55.10386 11012 ft 306 kts 272°
2026-04-25 08:48 25.30407 55.08013 11855 ft 319 kts 272°
2026-04-25 08:49 25.30540 55.05520 12728 ft 331 kts 272°
2026-04-25 08:49 25.30677 55.02940 13628 ft 342 kts 272°
2026-04-25 08:49 25.30810 55.00281 14411 ft 353 kts 272°
2026-04-25 08:49 25.30943 54.97522 14720 ft 363 kts 271°
2026-04-25 08:50 25.31071 54.94731 14815 ft 363 kts 271°
2026-04-25 08:50 25.31190 54.91943 14890 ft 363 kts 271°
2026-04-25 08:50 25.31276 54.89155 15138 ft 364 kts 270°
2026-04-25 08:50 25.31374 54.86349 15653 ft 365 kts 271°
2026-04-25 08:51 25.31510 54.83533 16363 ft 368 kts 271°
2026-04-25 08:51 25.31652 54.80706 17097 ft 371 kts 271°
2026-04-25 08:51 25.31805 54.77854 17846 ft 375 kts 272°
2026-04-25 08:51 25.31986 54.74966 18407 ft 377 kts 272°
2026-04-25 08:52 25.32163 54.72082 18900 ft 378 kts 272°
2026-04-25 08:52 25.32339 54.69213 19397 ft 379 kts 272°
2026-04-25 08:52 25.32539 54.66305 20018 ft 381 kts 273°
2026-04-25 08:52 25.32753 54.63375 20574 ft 383 kts 273°
2026-04-25 08:53 25.32963 54.60436 21139 ft 385 kts 273°
2026-04-25 08:53 25.33219 54.57485 21705 ft 387 kts 273°
2026-04-25 08:53 25.33447 54.54508 22281 ft 390 kts 276°
2026-04-25 08:53 25.33945 54.51557 22924 ft 394 kts 282°
2026-04-25 08:54 25.34701 54.48636 23572 ft 397 kts 284°
2026-04-25 08:54 25.35482 54.45698 24121 ft 400 kts 284°
2026-04-25 08:54 25.36275 54.42732 24683 ft 403 kts 284°
2026-04-25 08:54 25.37074 54.39758 25249 ft 406 kts 285°
2026-04-25 08:55 25.37873 54.36740 25845 ft 410 kts 284°
2026-04-25 08:55 25.38667 54.33704 26447 ft 413 kts 284°
2026-04-25 08:55 25.39467 54.30640 27063 ft 416 kts 283°
2026-04-25 08:55 25.39893 54.27494 27672 ft 415 kts 270°
2026-04-25 08:56 25.39778 54.24282 28086 ft 420 kts 265°
2026-04-25 08:56 25.39258 54.17882 27932 ft 417 kts 264°
2026-04-25 08:56 25.39004 54.14665 27363 ft 413 kts 264°
2026-04-25 08:57 25.38776 54.11545 26687 ft 410 kts 265°
2026-04-25 08:57 25.38562 54.08435 26436 ft 402 kts 265°
2026-04-25 08:57 25.38353 54.05312 26330 ft 410 kts 265°
2026-04-25 08:57 25.38144 54.02176 26224 ft 409 kts 265°
2026-04-25 08:58 25.37935 53.99042 26122 ft 408 kts 265°
2026-04-25 08:58 25.37725 53.95911 26021 ft 408 kts 265°
2026-04-25 08:58 25.37516 53.92786 25945 ft 407 kts 265°
2026-04-25 08:58 25.37469 53.89658 25940 ft 409 kts 274°
2026-04-25 08:59 25.37968 53.86562 25942 ft 410 kts 280°
2026-04-25 08:59 25.38563 53.83465 25947 ft 410 kts 280°
2026-04-25 08:59 25.39160 53.80386 25946 ft 411 kts 280°
2026-04-25 08:59 25.39764 53.77301 25938 ft 411 kts 280°
2026-04-25 09:00 25.40371 53.74207 25949 ft 418 kts 280°
2026-04-25 09:00 25.40993 53.71035 25932 ft 436 kts 280°
2026-04-25 09:00 25.41649 53.67688 25944 ft 453 kts 280°
2026-04-25 09:00 25.42327 53.64230 25939 ft 468 kts 280°
2026-04-25 09:01 25.43024 53.60674 25938 ft 476 kts 280°
2026-04-25 09:01 25.43727 53.57093 25947 ft 477 kts 280°
2026-04-25 09:01 25.44431 53.53501 25941 ft 477 kts 280°
2026-04-25 09:01 25.45131 53.49916 25949 ft 477 kts 280°
2026-04-25 09:02 25.45830 53.46334 25951 ft 477 kts 280°
2026-04-25 09:02 25.46530 53.42740 25948 ft 477 kts 280°
2026-04-25 09:02 25.47218 53.39197 25948 ft 477 kts 280°
2026-04-25 09:02 25.47915 53.35608 25942 ft 477 kts 280°
2026-04-25 09:03 25.48610 53.32022 25944 ft 477 kts 280°
2026-04-25 09:03 25.49304 53.28442 25947 ft 477 kts 280°
2026-04-25 09:03 25.49998 53.24852 25949 ft 477 kts 280°
2026-04-25 09:03 25.50690 53.21265 25956 ft 476 kts 280°
2026-04-25 09:04 25.51383 53.17675 25956 ft 476 kts 280°
2026-04-25 09:04 25.52071 53.14099 25953 ft 476 kts 280°
2026-04-25 09:04 25.52762 53.10507 25956 ft 476 kts 280°
2026-04-25 09:04 25.53449 53.06928 25945 ft 476 kts 279°
2026-04-25 09:05 25.54136 53.03344 25949 ft 476 kts 279°
2026-04-25 09:05 25.54822 52.99761 25960 ft 476 kts 279°
2026-04-25 09:05 25.55507 52.96177 25952 ft 475 kts 279°
2026-04-25 09:05 25.56343 52.92632 25958 ft 477 kts 285°
2026-04-25 09:06 25.57492 52.89223 25958 ft 480 kts 290°
2026-04-25 09:06 25.58960 52.85905 25959 ft 482 kts 295°
2026-04-25 09:06 25.60570 52.82639 25952 ft 482 kts 295°
2026-04-25 09:06 25.62163 52.79381 25958 ft 482 kts 295°
2026-04-25 09:07 25.63755 52.76113 25962 ft 481 kts 295°
2026-04-25 09:07 25.65345 52.72845 25959 ft 482 kts 295°
2026-04-25 09:07 25.66931 52.69583 25966 ft 482 kts 295°
2026-04-25 09:07 25.68523 52.66309 25958 ft 482 kts 295°
2026-04-25 09:08 25.70112 52.63040 25957 ft 482 kts 295°
2026-04-25 09:08 25.71697 52.59775 25963 ft 482 kts 295°
2026-04-25 09:08 25.73288 52.56496 25961 ft 482 kts 295°